#timestamp,LO_Frequency,Hit,StdDev 
1527213615.5,286047000.9,N
1527213635.4,286047002.5,N
1527213655.2,286047004.2,Y
1527213675.0,286047002.0,P
1527213675.9,286047002.0,P
1527213695.8,286047004.0,P
1527213715.6,286047001.8,N
1527213735.5,286047004.3,Y
1527213755.3,286047000.3,P
1527213775.1,286046998.6,N
1527213795.9,286046999.3,N
1527213815.7,286047000.2,N
1527213835.5,286047003.4,N
1527213855.4,286047002.9,N
1527213875.2,286047003.2,N
1527213895.1,286047003.4,N
1527213896.0,286047003.4,N
1527213915.8,286047003.2,N
1527213935.6,286047003.1,N
1527213955.5,286047002.9,N
1527213975.3,286047005.7,Y
1527213995.1,286047004.0,P
1527214015.9,286047001.3,N
1527214035.7,286047003.7,P
1527214055.6,286047001.6,N
1527214075.4,286047004.1,Y
1527214095.2,286047000.1,P
1527214115.1,286046999.8,N
1527214116.0,286046999.8,N
1527214135.8,286047000.0,N
1527214155.7,286047001.1,N
1527214175.5,286046998.2,N
1527214195.3,286046998.1,N
1527214215.2,286047000.0,N
1527214235.9,286046998.4,N
1527214255.7,286046998.5,N
1527214275.6,286046998.5,N
1527214295.4,286046999.0,N
1527214315.3,286046999.4,N
1527214335.1,286046998.7,N
1527214336.0,286046998.7,N
1527214355.8,286046999.4,N
1527214375.7,286046998.7,N
1527214395.5,286047001.0,N
1527214415.3,286046999.2,N
1527214435.2,286046996.9,N
1527214455.0,286046999.2,N
1527214455.9,286046999.2,N
1527214475.8,286046999.6,N
1527214495.6,286046998.1,N
1527214515.4,286046999.5,N
1527214535.3,286046996.7,Y
1527214555.1,286046997.3,P
1527214575.8,286046997.3,N
1527214595.7,286046997.6,N
1527214615.5,286046995.6,Y
1527214635.4,286047001.2,P
1527214655.2,286047000.7,N
1527214675.0,286047001.1,N
1527214676.0,286047001.1,N
1527214695.8,286047000.2,N
1527214715.6,286047001.0,N
1527214735.5,286046998.3,N
1527214755.3,286047001.1,N
1527214775.1,286046999.4,N
1527214795.9,286046997.1,N
1527214815.7,286046998.8,N
1527214835.6,286046996.5,N
1527214855.4,286046997.8,N
1527214875.2,286046998.0,N
1527214895.1,286046995.2,Y
1527214896.0,286046995.2,P
1527214915.8,286046996.6,N
1527214935.7,286046999.2,N
1527214955.5,286046998.9,N
1527214975.3,286046998.6,N
1527214995.2,286046998.9,N
1527215015.0,286046997.0,N
1527215015.9,286046997.0,N
1527215035.8,286046998.8,N
1527215055.6,286046998.8,N
1527215075.4,286046998.3,N
1527215095.3,286046999.1,N
1527215115.1,286046999.0,N
1527215135.8,286046997.0,N
1527215155.7,286046996.6,N
1527215175.5,286046996.6,N
1527215195.4,286047001.0,N
1527215215.2,286047002.3,N
1527215235.0,286046998.7,N
1527215235.9,286046998.7,N
1527215255.8,286046999.1,N
1527215275.6,286046998.6,N
1527215295.4,286046998.2,N
1527215315.3,286046998.3,N
1527215335.1,286046996.5,N
1527215355.9,286046998.6,N
1527215375.7,286046999.0,N
1527215395.5,286046999.5,N
1527215415.4,286046999.3,N
1527215435.2,286046999.5,N
1527215455.1,286046995.3,Y
1527215456.0,286046995.3,P
1527215475.8,286046997.3,N
1527215495.6,286046997.7,N
1527215515.5,286046995.2,Y
1527215535.3,286046998.3,P
1527215555.2,286047000.1,N
1527215575.9,286046999.7,N
1527215595.7,286047000.3,N
1527215615.6,286047000.4,N
1527215635.4,286047002.3,N
1527215655.2,286047003.2,N
1527215675.1,286047002.9,N
1527215676.0,286047002.9,N
1527215695.8,286047004.7,N
1527215715.7,286047005.8,N
1527215735.5,286047003.6,N
1527215755.3,286047003.9,N
1527215775.2,286047002.0,N
1527215795.0,286047001.4,N
1527215795.9,286047001.4,N
1527215815.7,286047001.7,N
1527215835.6,286047001.9,N
1527215855.4,286047002.3,N
1527215875.3,286047002.0,N
1527215895.1,286047002.7,N
1527215896.0,286047002.7,N
1527215915.8,286046999.8,N
1527215935.7,286046999.8,N
1527215955.5,286047000.1,N
1527215975.4,286046999.7,N
1527215995.2,286047002.8,N
1527216015.0,286047002.7,N
1527216015.9,286047002.7,N
1527216035.8,286046999.8,N
1527216055.6,286047002.4,N
1527216075.5,286047000.6,N
1527216095.3,286047001.2,N
1527216115.1,286046996.7,N
1527216135.9,286046999.0,N
1527216155.7,286046997.0,N
1527216175.5,286046996.7,N
1527216195.4,286046998.9,N
1527216215.2,286046998.8,N
1527216235.1,286046998.5,N
1527216236.0,286046998.5,N
1527216255.8,286046999.2,N
1527216275.6,286046999.4,N
1527216295.5,286046998.5,N
1527216315.3,286046999.2,N
1527216335.2,286046998.0,N
1527216355.9,286046997.8,N
1527216375.7,286046996.6,N
1527216395.6,286046999.6,N
1527216415.4,286046997.2,N
1527216435.2,286046997.5,N
1527216455.1,286046996.3,N
1527216456.0,286046996.3,N
1527216475.8,286046995.2,N
1527216495.7,286046993.7,Y
1527216515.5,286046996.6,P
1527216535.3,286046998.6,N
1527216555.2,286047000.0,N
1527216575.0,286046999.9,N
1527216575.9,286046999.9,N
1527216595.7,286047001.0,N
1527216615.6,286046999.6,N
1527216635.4,286046996.8,N
1527216655.3,286046999.3,N
1527216675.1,286046996.8,N
1527216676.0,286046996.8,N
1527216695.8,286046998.9,N
1527216715.7,286046998.7,N
1527216735.5,286046996.9,N
1527216755.3,286046999.3,N
1527216775.2,286046998.9,N
1527216795.0,286046997.1,N
1527216795.9,286046997.1,N
1527216815.8,286046995.3,Y
1527216835.6,286046999.6,P
1527216855.4,286046999.4,N
1527216875.3,286046998.4,P
1527216895.1,286046999.2,N
1527216915.9,286046998.1,Y
1527216935.7,286046999.9,P
1527216955.5,286047002.3,P
1527216975.4,286046999.7,N
1527216995.2,286046999.7,N
1527217015.1,286047000.6,N
1527217016.0,286047000.6,N
1527217035.8,286047000.4,N
1527217055.6,286047001.0,N
1527217075.5,286046999.9,N
1527217095.3,286047000.4,N
1527217115.1,286047000.6,N
1527217135.9,286046998.5,N
1527217155.7,286047000.6,N
1527217175.6,286047000.5,N
1527217195.4,286047000.2,N
